Location: Newark
(25.0000°N, 73.5000°E)
Time: 00:01:31
(UTC+00:00)

Tiros 1 despin weight - Pass Details

Date: 05 March 2021
Orbit: 593 x 641 km, 48.2° (Epoch: 15 April)

Event Time Altitude Azimuth Distance (km) Brightness Sun altitude
Rises 16:43:08 0° 237° (WSW) 2,835 - -48.4°
Reaches altitude 10° 16:45:28 10° 243° (WSW) 1,942 - -48.9°
Maximum altitude 16:49:47 49° 318° (NW) 787 - -49.8°
Drops below altitude 10° 16:54:11 10° 34° (NE) 1,977 - -50.7°
Sets 16:56:35 0° 40° (NE) 2,893 - -51.2°
